Location: Archemont
(49.1579°N, 1.7598°E)
Time: 14:21:27
(UTC+00:00)

Transit 2A - Pass Details

Date: 21 April 2024
Orbit: 594 x 958 km, 66.7° (Epoch: 27 May)

Event Time Altitude Azimuth Distance (km) Brightness Sun altitude
Rises 16:20:11 0° 309° (NW) 3,317 9.9 24.1°
Reaches altitude 10° 16:23:43 10° 285° (WNW) 2,460 10.0 23.5°
Maximum altitude 16:26:34 14° 255° (WSW) 2,226 10.7 23.0°
Drops below altitude 10° 16:29:32 10° 225° (SW) 2,563 9.7 22.6°
Sets 16:33:22 0° 202° (SSW) 3,556 9.8 21.9°
